Regional Weather Roundup
Issued by NWS State College, PA

Home | Current Version | Previous Version | Graphics & Text | Print | Product List | Glossary Off
Versions: 1 2 3 4 5 6 7 8 9 10 11 12 13 14 15 16 17 18 19 20 21 22 23 24 25 26 27 28 29 30 31 32 33 34 35 36 37 38 39 40 41 42 43 44 45 46 47 48 49 50

000
ASUS41 KCTP 240810
RWRCTP

REGIONAL WEATHER ROUNDUP
NATIONAL WEATHER SERVICE STATE COLLEGE PA
400 AM EDT WED AUG 24 2016

Note: "fair" indicates few or no clouds below 12,000 feet with no
significant weather and/or obstructions to visibility.

* = STATION THAT DOES NOT REPORT PRECIPITATION /E.G. RAIN...SNOW...ETC/
    THUNDER OR FOG.

PAZ002>004-007>009-013>016-020>023-029>032-240900-
WESTERN PENNSYLVANIA

CITY           SKY/WX    TMP DP  RH WIND       PRES   REMARKS
ERIE           CLEAR     65  58  78 S8        30.21S
MEADVILLE      CLEAR     61  56  83 CALM      30.25S
FRANKLIN*      CLEAR     57  54  88 SE3       30.26F
NEW CASTLE     FAIR      57  56  96 CALM      30.25S FOG
BEAVER COUNTY  NOT AVBL
BUTLER*        NOT AVBL
PITTSBURGH INT CLEAR     61  57  87 CALM      30.24R
PITTSBURGH     CLEAR     65  60  84 SE5       30.24S HAZE
INDIANA*       MOCLDY    61  59  94 CALM      30.29S
LATROBE        CLEAR     59  59 100 CALM      30.26S
WASHINGTON CO* CLEAR     55  54  94 CALM      30.25S
$$

PAZ004>006-010>012-017>019-024>028-033>037-041-042-045-046-049>053-240900-
CENTRAL PENNSYLVANIA

CITY           SKY/WX    TMP DP  RH WIND       PRES   REMARKS
BRADFORD       CLEAR     50  50 100 CALM      30.29S
DUBOIS         CLEAR     60  55  83 SE5       30.28R
CLEARFIELD     CLEAR     55  55 100 N6        30.29S
JOHNSTOWN      CLEAR     63  59  87 S6        30.30S
ALTOONA        CLEAR     58  58 100 W3        30.29F
STATE COLLEGE  CLEAR     59  58  96 CALM      30.28F
WILLIAMSPORT   CLEAR     60  56  86 CALM      30.26F
SELINSGROVE    CLEAR     56  56 100 CALM      30.28S
FT INDIANTOWN  CLEAR     59  58  98 CALM      30.28S
CAPITAL CITY   CLEAR     63  60  90 CALM      30.27S
HARRISBURG     PTCLDY    65  62  90 E6        30.26F
YORK           CLEAR     57  56  96 CALM      30.27F
$$

PAZ038>040-043-044-047-048-054-055-060>062-067>071-240900-
EASTERN PENNSYLVANIA

CITY           SKY/WX    TMP DP  RH WIND       PRES   REMARKS
SCRANTON       CLEAR     60  55  83 E5        30.28S
MOUNT POCONO   CLEAR     52  51  97 NW3       30.32S
ALLENTOWN      CLEAR     60  56  86 CALM      30.28S
QUAKERTOWN*    SUNNY     55  55 100 CALM      30.29F
READING        CLEAR     62  59  90 CALM      30.27S
LANCASTER      CLEAR     62  62 100 CALM      30.28S
COATESVILLE    SUNNY     64  59  82 CALM      30.30F
POTTSTOWN      CLEAR     59  58  96 CALM      30.29F
BLUE BELL      CLEAR     55  55 100 CALM      30.28S
DOYLESTOWN     CLEAR     62  59  90 CALM      30.27F
WILLOW GROVE   NOT AVBL
NORTH PHILA    CLEAR     64  60  87 CALM      30.29S
PHILADELPHIA   CLEAR     69  59  70 SW6       30.28F
$$



USA.gov is the U.S. government's official web portal to all federal, state and local government web resources and services.